Tracking 21612 objects as of 20-Oct-2020
HD Live streaming from Space Station
objects crossing your sky now

METEOSAT 4 AKM

Track METEOSAT 4 AKM now!


NORAD ID: 20800
Int'l Code: 1989-020E
Perigee: 35,205.4 km
Apogee: 36,276.0 km
Inclination: 13.4 °
Period: 1,433.4 minutes
Semi major axis: 42111 km
RCS: 1 m2 (large)
Launch date: March 6, 1989
Source: European Space Agency (ESA)
Launch site: FRENCH GUIANA (FRGUI)

Note: This is a ROCKET BODY
aabbcc
Your satellite tracking list
Your tracking list is empty




NASA's NSSDC Master Catalog

Two Line Element Set (TLE):
1 20800U 89020E   20293.58768748 -.00000018 +00000-0 +00000-0 0  9998
2 20800 013.3902 346.2789 0127115 201.2392 277.2849 01.00461225095728
Source of the keplerian elements: AFSPC